,,Stat6,,Stat2,,Stat8,,Stat9,,Stat10,,Wind1,,Wind1,
time,status,PA1M_AVG,status,PR1M_SUM,status,RH1M_AVG,status,SR1M_AVG,status,TA1M_AVG,status,W1dAve1m,status,W1sAve1m,
2007-06-02, 00:00:00,VALID,917.249,VALID,0,VALID,100,VALID,0,VALID,19.6471,VALID,101,VALID,0.74295,
2007-06-02, 00:01:00,VALID,917.272,VALID,0,VALID,100,VALID,0,VALID,19.6274,VALID,112,VALID,1.08408,
2007-06-02, 00:02:00,VALID,917.277,VALID,0,VALID,100,VALID,0,VALID,19.6207,VALID,111,VALID,1.04851,
2007-06-02, 00:03:00,VALID,917.27,VALID,0,VALID,100,VALID,0,VALID,19.6179,VALID,107,VALID,0.916243,
2007-06-02, 00:04:00,VALID,917.279,VALID,0,VALID,100,VALID,0,VALID,19.6085,VALID,110,VALID,0.968932,
2007-06-02, 00:05:00,VALID,917.292,VALID,0,VALID,100,VALID,0,VALID,19.602,VALID,101,VALID,0.640244,
2007-06-02, 00:06:00,VALID,917.278,VALID,0,VALID,100,VALID,0,VALID,19.5952,VALID,107,VALID,0.781808,
2007-06-02, 00:07:00,VALID,917.292,VALID,0,VALID,100,VALID,0,VALID,19.5985,VALID,104,VALID,0.696057,
2007-06-02, 00:08:00,VALID,917.288,VALID,0,VALID,100,VALID,-0.0169808,VALID,19.5985,VALID,120,VALID,0.831854,
2007-06-02, 00:09:00,VALID,917.292,VALID,0,VALID,100,VALID,0,VALID,19.5985,VALID,126,VALID,0.843217,
2007-06-02, 00:10:00,VALID,917.297,VALID,0,VALID,100,VALID,0.0169808,VALID,19.5985,VALID,127,VALID,0.902699,
2007-06-02, 00:11:00,VALID,917.299,VALID,0,VALID,100,VALID,-0.0169808,VALID,19.602,VALID,131,VALID,0.837426,
2007-06-02, 00:12:00,VALID,917.291,VALID,0,VALID,100,VALID,-0.0169808,VALID,19.6085,VALID,108,VALID,0.563388,
2007-06-02, 00:13:00,VALID,917.296,VALID,0,VALID,100,VALID,-0.0169808,VALID,19.6117,VALID,101,VALID,0.561285,
2007-06-02, 00:14:00,VALID,917.299,VALID,0,VALID,100,VALID,0,VALID,19.6177,VALID,98,VALID,0.424538,
2007-06-02, 00:15:00,VALID,917.288,VALID,0,VALID,100,VALID,0,VALID,19.6304,VALID,98,VALID,0.3375,
2007-06-02, 00:16:00,VALID,917.28,VALID,0,VALID,100,VALID,0,VALID,19.6409,VALID,98,VALID,0.257813,
2007-06-02, 00:17:00,VALID,917.27,VALID,0,VALID,100,VALID,-0.0169808,VALID,19.6209,VALID,98,VALID,0.0246094,
2007-06-02, 00:18:00,VALID,917.25,VALID,0,VALID,100,VALID,0,VALID,19.6312,VALID,98,VALID,0.021439,
2007-06-02, 00:19:00,VALID,917.231,VALID,0,VALID,100,VALID,-0.0169808,VALID,19.6412,VALID,98,VALID,0.00116356,
2007-06-02, 00:20:00,VALID,917.215,VALID,0,VALID,100,VALID,0,VALID,19.6536,VALID,98,VALID,0.141959,
2007-06-02, 00:21:00,VALID,917.188,VALID,0,VALID,100,VALID,0,VALID,19.6601,VALID,98,VALID,0.0361555,
2007-06-02, 00:22:00,VALID,917.167,VALID,0,VALID,100,VALID,-0.0169808,VALID,19.6896,VALID,92,VALID,0.0676448,
2007-06-02, 00:23:00,VALID,917.166,VALID,0,VALID,100,VALID,-0.0169808,VALID,19.6993,VALID,87,VALID,0.00872093,
2007-06-02, 00:24:00,VALID,917.14,VALID,0,VALID,100,VALID,0,VALID,19.6958,VALID,87,VALID,0.0225694,
2007-06-02, 00:25:00,VALID,917.124,VALID,0,VALID,100,VALID,0,VALID,19.6831,VALID,87,VALID,0.0665015,
2007-06-02, 00:26:00,VALID,917.092,VALID,0,VALID,100,VALID,-0.0169808,VALID,19.6766,VALID,342,VALID,0.572976,
2007-06-02, 00:27:00,VALID,917.071,VALID,0,VALID,100,VALID,0.0169808,VALID,19.6569,VALID,309,VALID,0.364397,
2007-06-02, 00:28:00,VALID,917.045,VALID,0,VALID,100,VALID,0,VALID,19.6669,VALID,309,VALID,0.170541,
2007-06-02, 00:29:00,VALID,917.028,VALID,0,VALID,100,VALID,0.0169808,VALID,19.6601,VALID,309,VALID,0.133384,
2007-06-02, 00:30:00,VALID,917.007,VALID,0,VALID,100,VALID,0.0169808,VALID,19.6701,VALID,309,VALID,0.0422894,
2007-06-02, 00:31:00,VALID,916.987,VALID,0,VALID,100,VALID,0,VALID,19.6604,VALID,309,VALID,0.000372024,
2007-06-02, 00:32:00,VALID,916.967,VALID,0,VALID,100,VALID,0,VALID,19.6534,VALID,309,VALID,0.199219,
2007-06-02, 00:33:00,VALID,916.962,VALID,0,VALID,100,VALID,0.0509425,VALID,19.6441,VALID,309,VALID,0.269886,
2007-06-02, 00:34:00,VALID,916.932,VALID,0,VALID,100,VALID,0.0169808,VALID,19.6377,VALID,309,VALID,0.230015,
2007-06-02, 00:35:00,VALID,916.932,VALID,0,VALID,100,VALID,0.0169808,VALID,19.6082,VALID,309,VALID,0.303646,
2007-06-02, 00:36:00,VALID,916.915,VALID,0,VALID,100,VALID,0.0679233,VALID,19.5623,VALID,309,VALID,0.307478,
2007-06-02, 00:37:00,VALID,916.903,VALID,0,VALID,100,VALID,0.0339617,VALID,19.5493,VALID,309,VALID,0.319382,
2007-06-02, 00:38:00,VALID,916.905,VALID,0,VALID,100,VALID,0.0169808,VALID,19.5561,VALID,309,VALID,0.0812137,
2007-06-02, 00:39:00,VALID,916.897,VALID,0,VALID,100,VALID,0.0339617,VALID,19.5463,VALID,309,VALID,0.00190549,
2007-06-02, 00:40:00,VALID,916.903,VALID,0,VALID,100,VALID,0.0339617,VALID,19.5366,VALID,309,VALID,0,
2007-06-02, 00:41:00,VALID,916.91,VALID,0,VALID,100,VALID,0.0169808,VALID,19.5239,VALID,309,VALID,0.018532,
2007-06-02, 00:42:00,VALID,916.917,VALID,0,VALID,100,VALID,0.0509425,VALID,19.5161,VALID,309,VALID,0.00114329,
2007-06-02, 00:43:00,VALID,916.929,VALID,0,VALID,100,VALID,0.0509425,VALID,19.5266,VALID,309,VALID,0,
2007-06-02, 00:44:00,VALID,916.951,VALID,0,VALID,100,VALID,-0.0509425,VALID,19.5411,VALID,309,VALID,0,
2007-06-02, 00:45:00,VALID,916.959,VALID,0,VALID,100,VALID,-0.0509425,VALID,19.5506,VALID,309,VALID,0,
2007-06-02, 00:46:00,VALID,916.991,VALID,0,VALID,100,VALID,-0.0679233,VALID,19.5638,VALID,309,VALID,0,
2007-06-02, 00:47:00,VALID,917.007,VALID,0,VALID,100,VALID,-0.0679233,VALID,19.5772,VALID,309,VALID,0,
2007-06-02, 00:48:00,VALID,917.026,VALID,0,VALID,100,VALID,-0.101885,VALID,19.5805,VALID,309,VALID,0,
2007-06-02, 00:49:00,VALID,917.043,VALID,0,VALID,100,VALID,-0.101885,VALID,19.5802,VALID,309,VALID,0,
2007-06-02, 00:50:00,VALID,917.04,VALID,0,VALID,100,VALID,-0.0509425,VALID,19.5807,VALID,309,VALID,0,
2007-06-02, 00:51:00,VALID,917.052,VALID,0,VALID,100,VALID,-0.0679233,VALID,19.5633,VALID,309,VALID,0.0485491,
2007-06-02, 00:52:00,VALID,917.056,VALID,0,VALID,100,VALID,-0.0509425,VALID,19.5573,VALID,309,VALID,0.353561,
2007-06-02, 00:53:00,VALID,917.058,VALID,0,VALID,100,VALID,-0.0849042,VALID,19.5506,VALID,349,VALID,0.626215,
2007-06-02, 00:54:00,VALID,917.053,VALID,0,VALID,100,VALID,-0.0679233,VALID,19.564,VALID,355,VALID,0.685082,
2007-06-02, 00:55:00,VALID,917.048,VALID,0,VALID,100,VALID,-0.0849042,VALID,19.5638,VALID,354,VALID,0.484722,
2007-06-02, 00:56:00,VALID,917.058,VALID,0,VALID,100,VALID,-0.101885,VALID,19.5705,VALID,334,VALID,0.531822,
2007-06-02, 00:57:00,VALID,917.048,VALID,0,VALID,100,VALID,-0.0509425,VALID,19.5862,VALID,311,VALID,0.250182,
2007-06-02, 00:58:00,VALID,917.067,VALID,0,VALID,100,VALID,-0.0679233,VALID,19.606,VALID,310,VALID,0.100991,
2007-06-02, 00:59:00,VALID,917.055,VALID,0,VALID,100,VALID,-0.0849042,VALID,19.6259,VALID,310,VALID,0.154797,
2007-06-02, 01:00:00,VALID,917.043,VALID,0,VALID,100,VALID,-0.0679233,VALID,19.6289,VALID,310,VALID,0.28452,
2007-06-02, 01:01:00,VALID,917.025,VALID,0,VALID,100,VALID,-0.0169808,VALID,19.6259,VALID,310,VALID,0.372093,
2007-06-02, 01:02:00,VALID,917.013,VALID,0,VALID,100,VALID,-0.0339617,VALID,19.6119,VALID,310,VALID,0.226563,
2007-06-02, 01:03:00,VALID,917.013,VALID,0,VALID,100,VALID,-0.0509425,VALID,19.6254,VALID,314,VALID,0.21984,
2007-06-02, 01:04:00,VALID,917.006,VALID,0,VALID,100,VALID,-0.101885,VALID,19.6289,VALID,356,VALID,0.869093,
2007-06-02, 01:05:00,VALID,917.006,VALID,0,VALID,100,VALID,-0.0509425,VALID,19.6257,VALID,3,VALID,0.72154,
2007-06-02, 01:06:00,VALID,916.995,VALID,0,VALID,100,VALID,-0.0849042,VALID,19.6287,VALID,5,VALID,0.726199,
2007-06-02, 01:07:00,VALID,916.976,VALID,0,VALID,100,VALID,-0.0339617,VALID,19.6187,VALID,1,VALID,0.291481,
2007-06-02, 01:08:00,VALID,916.977,VALID,0,VALID,100,VALID,-0.0339617,VALID,19.6252,VALID,13,VALID,0.450149,
2007-06-02, 01:09:00,VALID,916.935,VALID,0,VALID,100,VALID,-0.0339617,VALID,19.6287,VALID,11,VALID,0.213796,
2007-06-02, 01:10:00,VALID,916.928,VALID,0,VALID,100,VALID,-0.0509425,VALID,19.6349,VALID,11,VALID,0.228423,
2007-06-02, 01:11:00,VALID,916.92,VALID,0,VALID,100,VALID,-0.0509425,VALID,19.6484,VALID,11,VALID,0.447976,
2007-06-02, 01:12:00,VALID,916.918,VALID,0,VALID,100,VALID,0,VALID,19.6409,VALID,4,VALID,0.545898,
2007-06-02, 01:13:00,VALID,916.913,VALID,0,VALID,100,VALID,-0.0679233,VALID,19.6446,VALID,22,VALID,0.365663,
2007-06-02, 01:14:00,VALID,916.907,VALID,0,VALID,100,VALID,-0.0679233,VALID,19.6441,VALID,28,VALID,0.844113,
2007-06-02, 01:15:00,VALID,916.906,VALID,0,VALID,100,VALID,-0.0509425,VALID,19.6574,VALID,29,VALID,0.554874,
2007-06-02, 01:16:00,VALID,916.893,VALID,0,VALID,100,VALID,-0.0679233,VALID,19.6644,VALID,30,VALID,0.692508,
2007-06-02, 01:17:00,VALID,916.874,VALID,0,VALID,100,VALID,-0.0339617,VALID,19.6609,VALID,35,VALID,0.715843,
2007-06-02, 01:18:00,VALID,916.853,VALID,0,VALID,100,VALID,-0.0679233,VALID,19.6641,VALID,35,VALID,0.550521,
2007-06-02, 01:19:00,VALID,916.837,VALID,0,VALID,100,VALID,-0.0849042,VALID,19.6741,VALID,34,VALID,0.480808,
2007-06-02, 01:20:00,VALID,916.812,VALID,0,VALID,100,VALID,-0.0679233,VALID,19.6871,VALID,34,VALID,0.543555,
2007-06-02, 01:21:00,VALID,916.796,VALID,0,VALID,100,VALID,-0.101885,VALID,19.6941,VALID,34,VALID,0.223785,
2007-06-02, 01:22:00,VALID,916.767,VALID,0,VALID,100,VALID,-0.0849042,VALID,19.6938,VALID,34,VALID,0.463068,
2007-06-02, 01:23:00,VALID,916.73,VALID,0,VALID,100,VALID,-0.0849042,VALID,19.6973,VALID,36,VALID,0.316406,
2007-06-02, 01:24:00,VALID,916.715,VALID,0,VALID,100,VALID,-0.101885,VALID,19.7035,VALID,53,VALID,0.419457,
2007-06-02, 01:25:00,VALID,916.692,VALID,0,VALID,100,VALID,-0.101885,VALID,19.7003,VALID,43,VALID,0.400343,
2007-06-02, 01:26:00,VALID,916.669,VALID,0,VALID,100,VALID,-0.0679233,VALID,19.7003,VALID,41,VALID,0.198661,
2007-06-02, 01:27:00,VALID,916.641,VALID,0,VALID,100,VALID,-0.101885,VALID,19.6941,VALID,40,VALID,0.444754,
2007-06-02, 01:28:00,VALID,916.614,VALID,0,VALID,100,VALID,-0.101885,VALID,19.6676,VALID,40,VALID,0.546875,
2007-06-02, 01:29:00,VALID,916.593,VALID,0,VALID,100,VALID,0.0169808,VALID,19.6801,VALID,34,VALID,0.760174,
2007-06-02, 01:30:00,VALID,916.57,VALID,0,VALID,100,VALID,0,VALID,19.6763,VALID,28,VALID,0.820676,
2007-06-02, 01:31:00,VALID,916.57,VALID,0,VALID,100,VALID,0.0339617,VALID,19.6791,VALID,21,VALID,0.728379,
2007-06-02, 01:32:00,VALID,916.556,VALID,0,VALID,100,VALID,0.0169808,VALID,19.6858,VALID,20,VALID,0.9871,
2007-06-02, 01:33:00,VALID,916.547,VALID,0,VALID,100,VALID,0,VALID,19.6791,VALID,23,VALID,0.825149,
2007-06-02, 01:34:00,VALID,916.539,VALID,0,VALID,100,VALID,0,VALID,19.6953,VALID,39,VALID,0.719295,
2007-06-02, 01:35:00,VALID,916.537,VALID,0,VALID,100,VALID,-0.0169808,VALID,19.6888,VALID,37,VALID,0.697359,
2007-06-02, 01:36:00,VALID,916.52,VALID,0,VALID,100,VALID,0.0339617,VALID,19.6761,VALID,39,VALID,0.717448,
2007-06-02, 01:37:00,VALID,916.515,VALID,0,VALID,100,VALID,-0.0169808,VALID,19.6664,VALID,40,VALID,0.722049,
2007-06-02, 01:38:00,VALID,916.528,VALID,0,VALID,100,VALID,0.0169808,VALID,19.6694,VALID,34,VALID,0.598366,
2007-06-02, 01:39:01,VALID,916.525,VALID,0,VALID,100,VALID,0,VALID,19.6793,VALID,34,VALID,0.743331,
2007-06-02, 01:40:00,VALID,916.534,VALID,0,VALID,100,VALID,0,VALID,19.6629,VALID,34,VALID,0.926953,
2007-06-02, 01:41:00,VALID,916.508,VALID,0,VALID,100,VALID,-0.0169808,VALID,19.6731,VALID,32,VALID,1.02259,
2007-06-02, 01:42:01,VALID,916.503,VALID,0,VALID,100,VALID,0,VALID,19.6828,VALID,39,VALID,0.878711,
2007-06-02, 01:43:01,VALID,916.486,VALID,0,VALID,100,VALID,0,VALID,19.6594,VALID,41,VALID,0.537538,
2007-06-02, 01:44:00,VALID,916.458,VALID,0,VALID,100,VALID,0.0169808,VALID,19.6631,VALID,41,VALID,0.43679,
2007-06-02, 01:45:00,VALID,916.449,VALID,0,VALID,100,VALID,0.0339617,VALID,19.6499,VALID,41,VALID,0.429883,
2007-06-02, 01:46:00,VALID,916.431,VALID,0,VALID,100,VALID,0.0339617,VALID,19.6242,VALID,38,VALID,0.591087,
2007-06-02, 01:47:01,VALID,916.424,VALID,0,VALID,100,VALID,0,VALID,19.6082,VALID,33,VALID,0.789663,
2007-06-02, 01:48:00,VALID,916.44,VALID,0,VALID,100,VALID,0,VALID,19.585,VALID,32,VALID,0.83113,
2007-06-02, 01:49:00,VALID,916.436,VALID,0,VALID,100,VALID,0,VALID,19.5823,VALID,32,VALID,0.690799,
2007-06-02, 01:50:00,VALID,916.423,VALID,0,VALID,100,VALID,0.0339617,VALID,19.562,VALID,32,VALID,0.562326,
2007-06-02, 01:51:00,VALID,916.42,VALID,0,VALID,100,VALID,0,VALID,19.5623,VALID,32,VALID,0.391602,
2007-06-02, 01:52:00,VALID,916.411,VALID,0,VALID,100,VALID,-0.0169808,VALID,19.5665,VALID,32,VALID,0.349023,
2007-06-02, 01:53:00,VALID,916.395,VALID,0,VALID,100,VALID,-0.0169808,VALID,19.5531,VALID,32,VALID,0.0747514,
2007-06-02, 01:54:00,VALID,916.389,VALID,0,VALID,100,VALID,0,VALID,19.5663,VALID,32,VALID,0.344815,
2007-06-02, 01:55:01,VALID,916.385,VALID,0,VALID,100,VALID,0,VALID,19.5563,VALID,32,VALID,0.293445,
2007-06-02, 01:56:00,VALID,916.378,VALID,0,VALID,100,VALID,-0.0169808,VALID,19.5496,VALID,35,VALID,0.536086,
2007-06-02, 01:57:00,VALID,916.357,VALID,0,VALID,100,VALID,0,VALID,19.5655,VALID,51,VALID,0.964311,
2007-06-02, 01:58:00,VALID,916.344,VALID,0,VALID,100,VALID,0.0169808,VALID,19.5917,VALID,54,VALID,0.635352,
2007-06-02, 01:59:01,VALID,916.323,VALID,0,VALID,100,VALID,-0.0169808,VALID,19.6179,VALID,43,VALID,0.790516,
2007-06-02, 02:00:00,VALID,916.302,VALID,0,VALID,100,VALID,0.0169808,VALID,19.6599,VALID,41,VALID,0.485491,
2007-06-02, 02:01:00,VALID,916.297,VALID,0,VALID,100,VALID,0,VALID,19.6599,VALID,39,VALID,0.556784,
2007-06-02, 02:02:01,VALID,916.267,VALID,0,VALID,100,VALID,-0.0169808,VALID,19.6863,VALID,29,VALID,0.699124,
2007-06-02, 02:03:00,VALID,916.254,VALID,0,VALID,100,VALID,0,VALID,19.6983,VALID,22,VALID,0.78418,
2007-06-02, 02:04:01,VALID,916.225,VALID,0,VALID,100,VALID,-0.0169808,VALID,19.738,VALID,10,VALID,0.772636,
2007-06-02, 02:05:00,VALID,916.211,VALID,0,VALID,100,VALID,-0.0169808,VALID,19.7607,VALID,6,VALID,0.714026,
2007-06-02, 02:06:00,VALID,916.2,VALID,0,VALID,100,VALID,0,VALID,19.7897,VALID,10,VALID,0.694586,
2007-06-02, 02:07:00,VALID,916.19,VALID,0,VALID,100,VALID,0.0169808,VALID,19.8091,VALID,10,VALID,0.588034,
2007-06-02, 02:08:01,VALID,916.188,VALID,0,VALID,100,VALID,0,VALID,19.8288,VALID,10,VALID,0.510719,
2007-06-02, 02:09:00,VALID,916.185,VALID,0,VALID,100,VALID,-0.0169808,VALID,19.8386,VALID,7,VALID,0.530887,
2007-06-02, 02:10:00,VALID,916.172,VALID,0,VALID,100,VALID,0,VALID,19.8416,VALID,1,VALID,0.461632,
2007-06-02, 02:11:01,VALID,916.175,VALID,0,VALID,100,VALID,0,VALID,19.8448,VALID,1,VALID,0,
2007-06-02, 02:12:00,VALID,916.168,VALID,0,VALID,100,VALID,0,VALID,19.8453,VALID,1,VALID,0.170967,
2007-06-02, 02:13:00,VALID,916.165,VALID,0,VALID,100,VALID,-0.0339617,VALID,19.8386,VALID,1,VALID,0.163707,
2007-06-02, 02:14:00,VALID,916.175,VALID,0,VALID,100,VALID,0,VALID,19.8021,VALID,1,VALID,0.0265262,
2007-06-02, 02:15:01,VALID,916.183,VALID,0,VALID,100,VALID,0,VALID,19.7926,VALID,1,VALID,0,
2007-06-02, 02:16:00,VALID,916.19,VALID,0,VALID,100,VALID,0,VALID,19.7894,VALID,1,VALID,0.0102163,
2007-06-02, 02:17:00,VALID,916.205,VALID,0,VALID,100,VALID,0,VALID,19.8161,VALID,1,VALID,0.398983,
2007-06-02, 02:18:00,VALID,916.211,VALID,0,VALID,100,VALID,0,VALID,19.8026,VALID,16,VALID,0.484756,
2007-06-02, 02:19:01,VALID,916.23,VALID,0,VALID,100,VALID,0,VALID,19.8318,VALID,13,VALID,0.490091,
2007-06-02, 02:20:01,VALID,916.235,VALID,0,VALID,100,VALID,-0.0339617,VALID,19.8486,VALID,13,VALID,0.46131,
2007-06-02, 02:21:00,VALID,916.249,VALID,0,VALID,100,VALID,-0.0339617,VALID,19.8418,VALID,13,VALID,0.464286,
2007-06-02, 02:22:00,VALID,916.243,VALID,0,VALID,100,VALID,-0.0509425,VALID,19.8516,VALID,23,VALID,0.787972,
2007-06-02, 02:23:00,VALID,916.256,VALID,0,VALID,100,VALID,-0.0169808,VALID,19.8875,VALID,24,VALID,0.65843,
2007-06-02, 02:24:00,VALID,916.255,VALID,0,VALID,100,VALID,0,VALID,19.8872,VALID,31,VALID,0.872904,
2007-06-02, 02:25:00,VALID,916.243,VALID,0,VALID,100,VALID,-0.0169808,VALID,19.9007,VALID,30,VALID,0.908975,
2007-06-02, 02:26:01,VALID,916.24,VALID,0,VALID,100,VALID,-0.0169808,VALID,19.8775,VALID,29,VALID,0.918155,
2007-06-02, 02:27:01,VALID,916.238,VALID,0,VALID,100,VALID,-0.0169808,VALID,19.8645,VALID,29,VALID,0.855841,
2007-06-02, 02:28:01,VALID,916.249,VALID,0,VALID,100,VALID,0,VALID,19.8451,VALID,29,VALID,0.793605,
2007-06-02, 02:29:01,VALID,916.237,VALID,0,VALID,100,VALID,0,VALID,19.8218,VALID,29,VALID,0.811481,
2007-06-02, 02:30:00,VALID,916.238,VALID,0,VALID,100,VALID,-0.0339617,VALID,19.8518,VALID,29,VALID,0.815168,
2007-06-02, 02:31:01,VALID,916.239,VALID,0,VALID,100,VALID,-0.0169808,VALID,19.871,VALID,29,VALID,0.601376,
2007-06-02, 02:32:01,VALID,916.234,VALID,0,VALID,100,VALID,-0.0339617,VALID,19.8513,VALID,29,VALID,0.293527,
2007-06-02, 02:33:01,VALID,916.23,VALID,0,VALID,100,VALID,-0.0339617,VALID,19.8316,VALID,29,VALID,0.34375,
2007-06-02, 02:34:01,VALID,916.233,VALID,0,VALID,100,VALID,-0.0169808,VALID,19.8186,VALID,29,VALID,0.587891,
2007-06-02, 02:35:01,VALID,916.236,VALID,0,VALID,100,VALID,-0.0169808,VALID,19.7961,VALID,28,VALID,0.631963,
2007-06-02, 02:36:01,VALID,916.222,VALID,0,VALID,100,VALID,0,VALID,19.7862,VALID,26,VALID,0.922066,
2007-06-02, 02:37:01,VALID,916.209,VALID,0,VALID,100,VALID,-0.0169808,VALID,19.7862,VALID,22,VALID,0.561547,
2007-06-02, 02:38:01,VALID,916.197,VALID,0,VALID,100,VALID,-0.0169808,VALID,19.7794,VALID,14,VALID,0.614757,
2007-06-02, 02:39:01,VALID,916.182,VALID,0,VALID,100,VALID,-0.0169808,VALID,19.7797,VALID,8,VALID,0.53125,
2007-06-02, 02:40:00,VALID,916.16,VALID,0,VALID,100,VALID,-0.0169808,VALID,19.7931,VALID,8,VALID,0.171007,
2007-06-02, 02:41:00,VALID,916.151,VALID,0,VALID,100,VALID,-0.0339617,VALID,19.8029,VALID,8,VALID,0.144176,
2007-06-02, 02:42:00,VALID,916.13,VALID,0,VALID,100,VALID,-0.0169808,VALID,19.7897,VALID,8,VALID,0.00799419,
2007-06-02, 02:43:00,VALID,916.112,VALID,0,VALID,100,VALID,-0.0169808,VALID,19.7832,VALID,8,VALID,0,
2007-06-02, 02:44:00,VALID,916.097,VALID,0,VALID,100,VALID,-0.0339617,VALID,19.7699,VALID,8,VALID,0,
2007-06-02, 02:45:00,VALID,916.078,VALID,0,VALID,100,VALID,-0.0169808,VALID,19.7737,VALID,8,VALID,0.045856,
2007-06-02, 02:46:00,VALID,916.069,VALID,0,VALID,100,VALID,0,VALID,19.7637,VALID,8,VALID,0.185547,
2007-06-02, 02:47:00,VALID,916.039,VALID,0,VALID,100,VALID,-0.0169808,VALID,19.7639,VALID,8,VALID,0.270461,
2007-06-02, 02:48:00,VALID,916.02,VALID,0,VALID,100,VALID,-0.0339617,VALID,19.7542,VALID,8,VALID,0.141827,
2007-06-02, 02:49:00,VALID,915.992,VALID,0,VALID,100,VALID,0,VALID,19.7512,VALID,4,VALID,0.263626,
2007-06-02, 02:50:00,VALID,915.969,VALID,0,VALID,100,VALID,-0.0169808,VALID,19.7377,VALID,4,VALID,0.182413,
2007-06-02, 02:51:00,VALID,915.933,VALID,0,VALID,100,VALID,-0.0339617,VALID,19.7275,VALID,3,VALID,0.487305,
2007-06-02, 02:52:00,VALID,915.901,VALID,0,VALID,100,VALID,0,VALID,19.7315,VALID,328,VALID,0.527431,
2007-06-02, 02:53:00,VALID,915.889,VALID,0,VALID,100,VALID,0,VALID,19.7313,VALID,321,VALID,0.330592,
2007-06-02, 02:54:00,VALID,915.87,VALID,0,VALID,100,VALID,0,VALID,19.7442,VALID,321,VALID,0,
2007-06-02, 02:55:00,VALID,915.867,VALID,0,VALID,100,VALID,-0.0339617,VALID,19.751,VALID,321,VALID,0.0817587,
2007-06-02, 02:56:00,VALID,915.865,VALID,0,VALID,100,VALID,-0.0169808,VALID,19.7442,VALID,321,VALID,0.150746,
2007-06-02, 02:57:00,VALID,915.847,VALID,0,VALID,100,VALID,-0.0169808,VALID,19.7405,VALID,321,VALID,0.00241815,
2007-06-02, 02:58:00,VALID,915.844,VALID,0,VALID,100,VALID,-0.0169808,VALID,19.7477,VALID,321,VALID,0.0595238,
2007-06-02, 02:59:00,VALID,915.831,VALID,0,VALID,100,VALID,0.0169808,VALID,19.718,VALID,321,VALID,0.00508721,
2007-06-02, 03:00:00,VALID,915.823,VALID,0,VALID,100,VALID,-0.0169808,VALID,19.6631,VALID,321,VALID,0,
2007-06-02, 03:01:00,VALID,915.808,VALID,0,VALID,100,VALID,-0.0169808,VALID,19.6441,VALID,321,VALID,0,
2007-06-02, 03:02:00,VALID,915.811,VALID,0,VALID,100,VALID,-0.0339617,VALID,19.6402,VALID,321,VALID,0.0649858,
2007-06-02, 03:03:00,VALID,915.804,VALID,0,VALID,100,VALID,-0.0339617,VALID,19.6369,VALID,321,VALID,0,
2007-06-02, 03:04:00,VALID,915.804,VALID,0,VALID,100,VALID,-0.0339617,VALID,19.6407,VALID,321,VALID,0,
2007-06-02, 03:05:00,VALID,915.822,VALID,0,VALID,100,VALID,0,VALID,19.6239,VALID,321,VALID,0,
2007-06-02, 03:06:00,VALID,915.848,VALID,0,VALID,100,VALID,-0.0339617,VALID,19.6077,VALID,321,VALID,0,
2007-06-02, 03:07:00,VALID,915.857,VALID,0,VALID,100,VALID,-0.0339617,VALID,19.579,VALID,322,VALID,0,
2007-06-02, 03:08:00,VALID,915.863,VALID,0,VALID,100,VALID,0,VALID,19.5428,VALID,322,VALID,0,
2007-06-02, 03:09:00,VALID,915.885,VALID,0,VALID,100,VALID,-0.0169808,VALID,19.4944,VALID,322,VALID,0,
2007-06-02, 03:10:00,VALID,915.878,VALID,0,VALID,100,VALID,0,VALID,19.4847,VALID,322,VALID,0,
2007-06-02, 03:11:00,VALID,915.884,VALID,0,VALID,100,VALID,-0.0339617,VALID,19.4914,VALID,321,VALID,0.0170455,
2007-06-02, 03:12:00,VALID,915.874,VALID,0,VALID,100,VALID,-0.0339617,VALID,19.4977,VALID,321,VALID,0.160764,
2007-06-02, 03:13:00,VALID,915.869,VALID,0,VALID,100,VALID,-0.0339617,VALID,19.5201,VALID,322,VALID,0.468403,
2007-06-02, 03:14:00,VALID,915.876,VALID,0,VALID,100,VALID,-0.0169808,VALID,19.5493,VALID,324,VALID,0.065407,
2007-06-02, 03:15:00,VALID,915.883,VALID,0,VALID,100,VALID,-0.0509425,VALID,19.5398,VALID,324,VALID,0.000186012,
2007-06-02, 03:16:00,VALID,915.904,VALID,0,VALID,100,VALID,-0.0169808,VALID,19.5136,VALID,324,VALID,0.015439,
2007-06-02, 03:17:00,VALID,915.916,VALID,0,VALID,100,VALID,-0.0509425,VALID,19.4942,VALID,324,VALID,0,
2007-06-02, 03:18:00,VALID,915.913,VALID,0,VALID,100,VALID,0,VALID,19.4914,VALID,324,VALID,0,
2007-06-02, 03:19:00,VALID,915.928,VALID,0,VALID,100,VALID,-0.0169808,VALID,19.4977,VALID,324,VALID,0.0574128,
2007-06-02, 03:20:00,VALID,915.935,VALID,0,VALID,100,VALID,-0.0339617,VALID,19.4944,VALID,349,VALID,0.21968,
2007-06-02, 03:21:00,VALID,915.927,VALID,0,VALID,100,VALID,0,VALID,19.4977,VALID,15,VALID,0.152253,
2007-06-02, 03:22:00,VALID,915.913,VALID,0,VALID,100,VALID,-0.0169808,VALID,19.4944,VALID,50,VALID,0.193026,
2007-06-02, 03:23:00,VALID,915.893,VALID,0,VALID,100,VALID,-0.0169808,VALID,19.4712,VALID,54,VALID,0.145198,
2007-06-02, 03:24:00,VALID,915.871,VALID,0,VALID,100,VALID,-0.0169808,VALID,19.4647,VALID,64,VALID,0.352764,
2007-06-02, 03:25:00,VALID,915.848,VALID,0,VALID,100,VALID,-0.0339617,VALID,19.429,VALID,134,VALID,0.237351,
2007-06-02, 03:26:00,VALID,915.828,VALID,0,VALID,100,VALID,0,VALID,19.4001,VALID,135,VALID,0.338299,
2007-06-02, 03:27:00,VALID,915.823,VALID,0,VALID,100,VALID,-0.0339617,VALID,19.3612,VALID,156,VALID,0.219283,
2007-06-02, 03:28:00,VALID,915.819,VALID,0,VALID,100,VALID,0,VALID,19.329,VALID,164,VALID,0.350038,
2007-06-02, 03:29:00,VALID,915.822,VALID,0,VALID,100,VALID,-0.0509425,VALID,19.2975,VALID,178,VALID,0.7125,
2007-06-02, 03:30:00,VALID,915.836,VALID,0,VALID,100,VALID,-0.101885,VALID,19.2558,VALID,178,VALID,0.618641,
2007-06-02, 03:31:00,VALID,915.84,VALID,0,VALID,100,VALID,-0.0679233,VALID,19.2196,VALID,178,VALID,0.356831,
2007-06-02, 03:32:00,VALID,915.843,VALID,0,VALID,100,VALID,-0.101885,VALID,19.1976,VALID,178,VALID,0.211338,
2007-06-02, 03:33:00,VALID,915.864,VALID,0,VALID,100,VALID,-0.101885,VALID,19.1645,VALID,178,VALID,0.0192587,
2007-06-02, 03:34:00,VALID,915.866,VALID,0,VALID,100,VALID,-0.0679233,VALID,19.1415,VALID,178,VALID,0.0266335,
2007-06-02, 03:35:00,VALID,915.869,VALID,0,VALID,100,VALID,-0.101885,VALID,19.1285,VALID,178,VALID,0,
2007-06-02, 03:36:00,VALID,915.878,VALID,0,VALID,100,VALID,-0.0679233,VALID,19.1126,VALID,178,VALID,0,
2007-06-02, 03:37:00,VALID,915.892,VALID,0,VALID,100,VALID,-0.0509425,VALID,19.0964,VALID,178,VALID,0,
2007-06-02, 03:38:00,VALID,915.91,VALID,0,VALID,100,VALID,-0.0849042,VALID,19.0799,VALID,178,VALID,0,
2007-06-02, 03:39:00,VALID,915.909,VALID,0,VALID,100,VALID,-0.101885,VALID,19.0667,VALID,178,VALID,0,
2007-06-02, 03:40:00,VALID,915.898,VALID,0,VALID,100,VALID,-0.0679233,VALID,19.0801,VALID,178,VALID,0,
2007-06-02, 03:41:00,VALID,915.878,VALID,0,VALID,100,VALID,-0.101885,VALID,19.0766,VALID,178,VALID,0,
2007-06-02, 03:42:00,VALID,915.872,VALID,0,VALID,100,VALID,-0.0679233,VALID,19.0702,VALID,178,VALID,0,
2007-06-02, 03:43:00,VALID,915.865,VALID,0,VALID,100,VALID,-0.0509425,VALID,19.0567,VALID,178,VALID,0,